FW7926 Weather Reports


time (UTC)temp
C
wind
direction
speed
KPH
gust
KPH
rain 1hr
cm
rain 24hr
cm
rain mn
cm
humidity
%
barometer
mb
20260906105824 21 92 4.8 16.1 0.00 0.00 0.00 96 1016.4
20260906105547 21 87 4.8 16.1 0.00 0.00 0.00 96 1016.4
20260906104813 21 74 6.4 12.9 0.00 0.00 0.00 96 1016.2
20260906104306 21 87 4.8 12.9 0.00 0.00 0.00 96 1016.2
20260906103800 21 67 4.8 12.9 0.00 0.00 0.00 95 1016.1
20260906103254 21 74 4.8 12.9 0.00 0.00 0.00 95 1016.3
20260906102749 21 64 4.8 12.9 0.00 0.00 0.00 95 1016.2
20260906102243 21 88 6.4 16.1 0.00 0.00 0.00 95 1016.0
20260906101736 21 81 4.8 16.1 0.00 0.00 0.00 95 1016.0
20260906101457 21 120 4.8 17.7 0.00 0.00 0.00 95 1016.0
20260906100725 21 58 6.4 17.7 0.00 0.00 0.00 95 1016.0
20260906100504 21 81 6.4 16.1 0.00 0.00 0.00 94 1016.0
20260906095713 21 70 6.4 14.5 0.00 0.00 0.00 94 1016.0
20260906095214 21 66 4.8 14.5 0.00 0.00 0.00 94 1015.9
20260906094709 21 55 4.8 12.9 0.00 0.00 0.00 94 1016.1
20260906094206 21 57 4.8 12.9 0.00 0.00 0.00 94 1016.0
20260906093715 21 92 4.8 12.9 0.00 0.00 0.00 94 1015.9
20260906093706 21 60 4.8 12.9 0.00 0.00 0.00 94 1015.9
20260906092931 21 70 4.8 12.9 0.00 0.00 0.00 94 1015.8
20260906092203 21 60 6.4 17.7 0.00 0.00 0.00 93 1015.8
20260906091659 21 49 4.8 17.7 0.00 0.00 0.00 93 1015.7
20260906091201 21 91 4.8 17.7 0.00 0.00 0.00 93 1015.8
20260906090701 21 93 4.8 16.1 0.00 0.00 0.00 93 1015.7
20260906090200 21 79 4.8 16.1 0.00 0.00 0.00 93 1015.7
20260906085931 21 80 6.4 14.5 0.00 0.00 0.00 93 1015.7
20260906085200 21 67 6.4 14.5 0.00 0.00 0.00 93 1015.7
20260906084700 21 51 4.8 12.9 0.00 0.00 0.00 93 1015.7
20260906084202 21 73 6.4 14.5 0.00 0.00 0.00 92 1015.7
20260906083922 21 147 8.0 16.1 0.00 0.00 0.00 92 1015.8
20260906083420 21 105 6.4 16.1 0.00 0.00 0.00 92 1015.8
20260906082656 21 65 6.4 17.7 0.00 0.00 0.00 92 1015.9
20260906082420 21 78 8.0 17.7 0.00 0.00 0.00 92 1015.9
20260906081657 21 90 8.0 14.5 0.00 0.00 0.00 91 1015.9
20260906081156 22 107 6.4 16.1 0.00 0.00 0.00 91 1015.9
20260906080657 22 85 6.4 16.1 0.00 0.00 0.00 91 1015.9
20260906080157 22 102 6.4 16.1 0.00 0.00 0.00 91 1015.8
20260906075657 22 80 6.4 24.1 0.00 0.00 0.00 91 1015.8
20260906075156 22 93 8.0 24.1 0.00 0.00 0.00 90 1015.9
20260906074658 22 101 8.0 25.7 0.00 0.00 0.00 90 1015.7
20260906074158 22 83 6.4 25.7 0.00 0.00 0.00 90 1015.7
20260906073655 22 88 8.0 16.1 0.00 0.00 0.00 90 1015.7
20260906073156 22 107 8.0 17.7 0.00 0.00 0.00 90 1015.9
20260906072656 22 113 6.4 17.7 0.00 0.00 0.00 90 1015.8
20260906072156 22 85 4.8 16.1 0.00 0.00 0.00 89 1015.7
20260906071913 23 50 4.8 11.3 0.00 0.00 0.00 89 1015.6
20260906071155 23 51 6.4 16.1 0.00 0.00 0.00 89 1015.8
20260906070655 23 105 6.4 16.1 0.00 0.00 0.00 89 1015.7
20260906070636 23 70 4.8 12.9 0.00 0.00 0.00 89 1015.7
20260906065655 23 97 4.8 14.5 0.00 0.00 0.00 89 1015.8
20260906065157 23 121 4.8 14.5 0.00 0.00 0.00 88 1015.8
20260906064654 23 66 6.4 17.7 0.00 0.00 0.00 88 1015.8
20260906064152 23 59 6.4 17.7 0.00 0.00 0.00 88 1015.8
20260906063652 23 45 6.4 16.1 0.00 0.00 0.00 88 1015.8
20260906063146 23 73 4.8 16.1 0.00 0.00 0.00 88 1015.8
20260906062640 23 58 4.8 12.9 0.00 0.00 0.00 88 1015.6
20260906062135 23 76 6.4 14.5 0.00 0.00 0.00 87 1015.6
20260906061628 24 351 8.0 14.5 0.00 0.00 0.00 87 1015.6
20260906061122 24 74 8.0 16.1 0.00 0.00 0.00 86 1015.5
20260906060616 24 123 8.0 16.1 0.00 0.00 0.00 86 1015.5
20260906060335 24 110 6.4 14.5 0.00 0.00 0.00 86 1015.5
20260906055604 24 93 6.4 16.1 0.00 0.00 0.00 86 1015.5
20260906055059 25 114 6.4 16.1 0.00 0.00 0.00 86 1015.5
20260906054552 25 102 6.4 19.3 0.00 0.00 0.00 85 1015.6
20260906054313 25 89 8.0 19.3 0.00 0.00 0.00 85 1015.5
20260906053757 25 56 8.0 19.3 0.00 0.00 0.00 85 1015.3
20260906053048 25 67 6.4 19.3 0.00 0.00 0.00 85 1015.3
20260906052759 25 111 6.4 16.1 0.00 0.00 0.00 85 1015.3
20260906052023 25 97 4.8 16.1 0.00 0.00 0.00 85 1015.1
20260906051516 25 98 4.8 16.1 0.00 0.00 0.00 85 1015.4
20260906051010 25 69 6.4 16.1 0.00 0.00 0.00 85 1015.4
20260906050517 25 80 6.4 14.5 0.00 0.00 0.00 85 1015.4
20260906050218 25 130 6.4 14.5 0.00 0.00 0.00 84 1015.4
20260906045721 25 116 6.4 16.1 0.00 0.00 0.00 84 1015.4
20260906044948 26 80 8.0 19.3 0.00 0.00 0.00 84 1015.3
20260906044535 26 6 8.0 19.3 0.00 0.00 0.00 84 1015.3
20260906043430 26 60 6.4 17.7 0.00 0.00 0.00 84 1015.2
20260906042924 26 116 6.4 17.7 0.00 0.00 0.00 83 1015.2
20260906042639 26 93 8.0 17.7 0.00 0.00 0.00 83 1015.0
20260906041913 26 106 9.7 20.9 0.00 0.00 0.00 83 1015.0
20260906041406 26 72 9.7 20.9 0.00 0.00 0.00 83 1015.0
20260906040903 26 67 9.7 17.7 0.00 0.00 0.00 83 1015.0
20260906040403 27 96 9.7 19.3 0.00 0.00 0.00 83 1014.9
20260906040130 27 74 9.7 24.1 0.00 0.00 0.00 83 1015.0
20260906035403 27 89 9.7 24.1 0.00 0.00 0.00 83 1014.9
20260906034904 27 128 9.7 24.1 0.00 0.00 0.00 83 1014.7
20260906034847 27 57 11.3 25.7 0.00 0.00 0.00 82 1014.7
20260906034123 27 70 12.9 25.7 0.00 0.00 0.00 82 1014.8
20260906033404 28 105 11.3 25.7 0.00 0.00 0.00 81 1014.7
20260906032903 28 76 8.0 25.7 0.00 0.00 0.00 81 1014.5
20260906032123 28 68 8.0 17.7 0.00 0.00 0.00 80 1014.4
20260906031401 28 45 8.0 17.7 0.00 0.00 0.00 80 1014.5
20260906030902 28 70 8.0 19.3 0.00 0.00 0.00 80 1014.4
20260906030359 28 92 8.0 19.3 0.00 0.00 0.00 80 1014.5
20260906025857 28 87 6.4 16.1 0.00 0.00 0.00 80 1014.5
20260906025358 28 72 6.4 12.9 0.00 0.00 0.00 81 1014.5
20260906024857 28 66 4.8 12.9 0.00 0.00 0.00 81 1014.2
20260906024357 28 82 4.8 11.3 0.00 0.00 0.00 82 1014.2
20260906023856 28 49 3.2 11.3 0.00 0.00 0.00 83 1014.1
20260906023357 28 91 1.6 9.7 0.00 0.00 0.00 82 1014.2
20260906022857 28 103 0.0 8.0 0.00 0.00 0.00 82 1014.0
20260906022628 28 85 0.0 0.0 0.00 0.00 0.00 82 1013.8
20260906021852 28 67 0.0 0.0 0.00 0.00 0.00 81 1014.0
20260906021345 28 67 0.0 0.0 0.00 0.00 0.00 81 1013.8
20260906020839 28 67 0.0 0.0 0.00 0.00 0.00 80 1013.7
20260906020334 28 67 0.0 0.0 0.00 0.00 0.00 80 1013.7
20260906015828 28 67 0.0 0.0 0.00 0.00 0.00 80 1013.6
20260906015322 28 67 0.0 0.0 0.00 0.00 0.00 79 1013.5
20260906014815 28 86 0.0 0.0 0.00 0.00 0.00 79 1013.4
20260906014537 28 53 0.0 0.0 0.00 0.00 0.00 78 1013.5
20260906013803 29 74 0.0 0.0 0.00 0.00 0.00 78 1013.5
20260906013257 29 107 0.0 0.0 0.00 0.00 0.00 77 1013.6
20260906013024 29 93 0.0 0.0 0.00 0.00 0.00 77 1013.4
20260906012245 29 16 0.0 0.0 0.00 0.00 0.00 76 1013.4
20260906011740 30 125 0.0 0.0 0.00 0.00 0.00 76 1013.2
20260906011234 30 92 0.0 0.0 0.00 0.00 0.00 76 1013.2
20260906010955 30 86 0.0 3.2 0.00 0.00 0.00 75 1013.2
20260906010221 30 22 0.0 3.2 0.00 0.00 0.00 75 1013.3
20260906005716 30 51 0.0 6.4 0.00 0.00 0.00 74 1013.1
20260906005428 30 64 0.0 6.4 0.00 0.00 0.00 74 1013.1
20260906004703 30 78 0.0 0.0 0.00 0.00 0.00 73 1013.1
20260906004429 31 83 0.0 0.0 0.00 0.00 0.00 72 1013.3
20260906004142 31 91 0.0 6.4 0.00 0.00 0.00 72 1013.1
20260906003146 31 94 0.0 6.4 0.00 0.00 0.00 71 1013.1
20260906002639 31 31 0.0 0.0 0.00 0.00 0.00 71 1013.1
20260906002146 31 32 0.0 0.0 0.00 0.00 0.00 70 1013.0
20260906001641 32 57 0.0 1.6 0.00 0.00 0.00 69 1013.0
20260906001121 32 49 0.0 3.2 0.00 0.00 0.00 69 1013.0
20260906000616 32 20 0.0 3.2 0.00 0.00 0.00 69 1013.0
20260906000344 32 70 0.0 0.0 0.00 0.00 0.00 68 1013.1
20260905235603 32 82 0.0 0.0 0.00 0.00 0.00 68 1013.0
20260905235549 32 74 0.0 0.0 0.00 0.00 0.00 67 1013.0
20260905234551 33 101 0.0 0.0 0.00 0.00 0.00 66 1013.0
20260905234045 33 106 0.0 0.0 0.00 0.00 0.00 65 1013.0
20260905233813 33 62 0.0 0.0 0.00 0.00 0.00 65 1013.0
20260905233303 33 78 0.0 0.0 0.00 0.00 0.00 64 1013.0
20260905232528 33 30 0.0 0.0 0.00 0.00 0.00 63 1013.0
20260905232021 34 74 0.0 0.0 0.00 0.00 0.00 63 1012.9
20260905231516 34 82 0.0 3.2 0.00 0.00 0.00 62 1012.8
20260905231009 35 57 1.6 6.4 0.00 0.00 0.00 60 1012.8
20260905230503 35 31 1.6 12.9 0.00 0.00 0.00 59 1012.9
20260905230444 35 52 1.6 12.9 0.00 0.00 0.00 57 1012.8
20260905225451 36 353 0.0 3.2 0.00 0.00 0.00 56 1013.0
20260905224945 36 70 0.0 6.4 0.00 0.00 0.00 55 1012.9
20260905224440 36 51 1.6 8.0 0.00 0.00 0.00 56 1012.9
20260905223940 36 29 1.6 8.0 0.00 0.00 0.00 55 1012.7
20260905223441 36 68 3.2 9.7 0.00 0.00 0.00 55 1012.7
20260905223205 36 77 3.2 12.9 0.00 0.00 0.00 54 1012.7
20260905222928 36 19 3.2 12.9 0.00 0.00 0.00 52 1012.8
20260905221938 36 344 1.6 14.5 0.00 0.00 0.00 52 1012.8
20260905221658 36 102 3.2 14.5 0.00 0.00 0.00 52 1012.7
20260905220942 36 12 3.2 14.5 0.00 0.00 0.00 52 1012.7
20260905220442 36 351 4.8 14.5 0.00 0.00 0.00 52 1012.7
20260905215706 36 10 3.2 12.9 0.00 0.00 0.00 54 1012.6
20260905214938 36 24 3.2 8.0 0.00 0.00 0.00 56 1012.7
20260905214439 35 74 1.6 8.0 0.00 0.00 0.00 56 1012.7
20260905213939 35 222 1.6 8.0 0.00 0.00 0.00 57 1012.8
20260905213437 35 41 1.6 8.0 0.00 0.00 0.00 58 1012.8
20260905213157 34 90 0.0 0.0 0.00 0.00 0.00 58 1012.9
20260905212436 34 208 0.0 4.8 0.00 0.00 0.00 58 1012.9
20260905212154 34 82 0.0 6.4 0.00 0.00 0.00 58 1012.8
20260905211434 35 231 3.2 12.9 0.00 0.00 0.00 58 1013.0
20260905210934 35 257 3.2 12.9 0.00 0.00 0.00 58 1013.0
20260905210434 35 82 3.2 9.7 0.00 0.00 0.00 56 1013.1
20260905205935 35 193 4.8 11.3 0.00 0.00 0.00 52 1013.3
20260905205435 34 289 8.0 20.9 0.00 0.00 0.00 52 1013.3
20260905204931 35 305 4.8 20.9 0.00 0.00 0.00 54 1013.2
20260905204430 36 297 1.6 11.3 0.00 0.00 0.00 54 1013.1
20260905203929 37 339 3.2 9.7 0.00 0.00 0.00 53 1013.0
20260905203431 37 359 3.2 14.5 0.00 0.00 0.00 53 1013.0
20260905202931 37 1 3.2 14.5 0.00 0.00 0.00 52 1013.0
20260905202431 37 10 3.2 11.3 0.00 0.00 0.00 51 1013.0
20260905201929 37 253 3.2 11.3 0.00 0.00 0.00 51 1013.0
20260905201658 36 290 1.6 9.7 0.00 0.00 0.00 52 1013.1
20260905201154 36 3 1.6 9.7 0.00 0.00 0.00 52 1013.3
20260905200428 36 21 1.6 11.3 0.00 0.00 0.00 52 1013.4
20260905195933 37 8 3.2 12.9 0.00 0.00 0.00 51 1013.5
20260905195645 37 352 3.2 12.9 0.00 0.00 0.00 49 1013.5
20260905195601 37 6 4.8 12.9 0.00 0.00 0.00 50 1013.5
20260905194427 37 324 4.8 12.9 0.00 0.00 0.00 49 1013.4
20260905193928 37 12 4.8 12.9 0.00 0.00 0.00 51 1013.5
20260905193429 36 303 3.2 11.3 0.00 0.00 0.00 51 1013.5
20260905192928 36 10 1.6 9.7 0.00 0.00 0.00 51 1013.5
20260905192422 37 60 3.2 8.0 0.00 0.00 0.00 51 1013.6
20260905191916 37 93 3.2 11.3 0.00 0.00 0.00 49 1013.4
20260905191410 37 241 4.8 14.5 0.00 0.00 0.00 49 1013.5
20260905190905 37 339 4.8 14.5 0.00 0.00 0.00 49 1013.5
20260905190358 37 6 1.6 12.9 0.00 0.00 0.00 50 1013.6
20260905185852 37 96 1.6 9.7 0.00 0.00 0.00 48 1013.6
20260905185405 37 274 3.2 11.3 0.00 0.00 0.00 49 1013.7
20260905184853 37 35 4.8 11.3 0.00 0.00 0.00 49 1013.8
20260905184352 37 314 3.2 11.3 0.00 0.00 0.00 50 1013.8
20260905183853 37 69 1.6 8.0 0.00 0.00 0.00 50 1013.9
20260905183353 37 13 3.2 14.5 0.00 0.00 0.00 50 1014.0
20260905182854 37 359 4.8 14.5 0.00 0.00 0.00 50 1014.0
20260905182356 37 65 4.8 16.1 0.00 0.00 0.00 51 1014.1
20260905181852 36 314 4.8 16.1 0.00 0.00 0.00 50 1014.1
20260905181351 36 324 6.4 16.1 0.00 0.00 0.00 50 1014.1
20260905180853 36 282 8.0 16.1 0.00 0.00 0.00 49 1014.2
20260905180352 36 301 8.0 17.7 0.00 0.00 0.00 50 1014.3
20260905175852 36 314 6.4 17.7 0.00 0.00 0.00 50 1014.3
20260905175609 36 30 4.8 16.1 0.00 0.00 0.00 51 1014.3
20260905174851 36 346 6.4 12.9 0.00 0.00 0.00 50 1014.2
20260905174351 37 48 6.4 16.1 0.00 0.00 0.00 52 1014.3
20260905173857 36 289 4.8 16.1 0.00 0.00 0.00 51 1014.4
20260905173849 36 284 4.8 16.1 0.00 0.00 0.00 52 1014.4
20260905172845 36 309 6.4 16.1 0.00 0.00 0.00 51 1014.3
20260905172341 36 302 6.4 12.9 0.00 0.00 0.00 51 1014.5
20260905171842 36 342 6.4 12.9 0.00 0.00 0.00 52 1014.5
20260905171341 36 306 4.8 12.9 0.00 0.00 0.00 51 1014.6
20260905170847 36 20 4.8 14.5 0.00 0.00 0.00 54 1014.5
20260905170604 36 39 4.8 14.5 0.00 0.00 0.00 54 1014.7
20260905165841 36 33 4.8 12.9 0.00 0.00 0.00 54 1014.7
20260905165341 36 12 4.8 12.9 0.00 0.00 0.00 56 1014.7
20260905164841 36 130 3.2 11.3 0.00 0.00 0.00 55 1014.7
20260905164350 35 5 3.2 9.7 0.00 0.00 0.00 57 1014.8
20260905164340 36 61 1.6 9.7 0.00 0.00 0.00 55 1014.8
20260905163339 35 62 4.8 12.9 0.00 0.00 0.00 57 1014.8
20260905162839 35 299 4.8 12.9 0.00 0.00 0.00 57 1014.9
20260905162341 35 256 1.6 6.4 0.00 0.00 0.00 59 1014.9
20260905161839 35 353 1.6 6.4 0.00 0.00 0.00 60 1014.9
20260905161340 35 17 0.0 12.9 0.00 0.00 0.00 61 1015.1
20260905160854 34 91 1.6 12.9 0.00 0.00 0.00 60 1015.0
20260905160340 34 264 4.8 12.9 0.00 0.00 0.00 61 1015.0
20260905155839 34 287 3.2 12.9 0.00 0.00 0.00 61 1015.0
20260905155339 34 343 1.6 6.4 0.00 0.00 0.00 61 1015.1
20260905154839 34 324 1.6 8.0 0.00 0.00 0.00 61 1015.2
20260905154339 34 20 1.6 8.0 0.00 0.00 0.00 61 1015.3
20260905153840 33 305 1.6 6.4 0.00 0.00 0.00 63 1015.3
20260905153339 33 263 1.6 6.4 0.00 0.00 0.00 64 1015.2
20260905153102 33 245 1.6 6.4 0.00 0.00 0.00 63 1015.2
20260905152339 33 59 1.6 6.4 0.00 0.00 0.00 63 1015.2
20260905151845 33 324 1.6 9.7 0.00 0.00 0.00 65 1015.3
20260905151339 32 51 1.6 9.7 0.00 0.00 0.00 64 1015.3
20260905150840 32 353 1.6 11.3 0.00 0.00 0.00 65 1015.2
20260905150339 32 74 1.6 11.3 0.00 0.00 0.00 65 1015.1
20260905150056 32 355 1.6 6.4 0.00 0.00 0.00 67 1015.0
20260905145605 32 14 1.6 6.4 0.00 0.00 0.00 67 1015.1
20260905144839 31 295 1.6 6.4 0.00 0.00 0.00 68 1015.2
20260905144338 31 355 1.6 9.7 0.00 0.00 0.00 69 1015.0
20260905143838 31 246 1.6 9.7 0.00 0.00 0.00 69 1015.0
20260905143339 31 314 3.2 9.7 0.00 0.00 0.00 69 1015.0
20260905142839 31 261 3.2 9.7 0.00 0.00 0.00 70 1015.0
20260905142338 31 255 3.2 9.7 0.00 0.00 0.00 70 1015.0
20260905141838 31 332 4.8 12.9 0.00 0.00 0.00 69 1015.0
20260905141338 30 236 4.8 12.9 0.00 0.00 0.00 70 1014.9
20260905140833 30 336 3.2 12.9 0.00 0.00 0.00 71 1014.9
20260905140326 30 336 4.8 6.4 0.00 0.00 0.00 72 1015.0
20260905140045 30 345 4.8 9.7 0.00 0.00 0.00 72 1015.0
20260905135314 30 347 3.2 9.7 0.00 0.00 0.00 72 1015.0
20260905134809 29 285 3.2 9.7 0.00 0.00 0.00 72 1015.0
20260905134303 29 293 3.2 9.7 0.00 0.00 0.00 74 1015.0
20260905133756 28 323 3.2 11.3 0.00 0.00 0.00 75 1014.9
20260905133250 28 296 3.2 11.3 0.00 0.00 0.00 76 1015.0
20260905132744 27 275 0.0 6.4 0.00 0.00 0.00 78 1015.0
20260905132239 27 247 0.0 0.0 0.00 0.00 0.00 80 1015.0
20260905131733 27 284 0.0 0.0 0.00 0.00 0.00 82 1015.0
20260905131227 26 218 0.0 0.0 0.00 0.00 0.00 83 1015.0
20260905130721 26 218 0.0 1.6 0.00 0.00 0.00 84 1015.0
20260905130228 26 218 1.6 3.2 0.00 0.00 0.00 84 1015.0
20260905125709 26 218 0.0 3.2 0.00 0.00 0.00 86 1015.0
20260905125202 25 88 0.0 0.0 0.00 0.00 0.00 87 1014.9
20260905124657 25 88 0.0 0.0 0.00 0.00 0.00 88 1014.9
20260905124414 25 88 0.0 0.0 0.00 0.00 0.00 88 1014.8
20260905123909 25 88 0.0 0.0 0.00 0.00 0.00 88 1014.9
20260905123139 24 88 0.0 0.0 0.00 0.00 0.00 88 1014.7
20260905122853 24 88 0.0 0.0 0.00 0.00 0.00 88 1014.8
20260905122127 24 88 0.0 0.0 0.00 0.00 0.00 88 1014.7
20260905121633 24 88 0.0 0.0 0.00 0.00 0.00 88 1014.7
20260905121114 24 88 0.0 0.0 0.00 0.00 0.00 87 1014.8
20260905120609 24 88 0.0 0.0 0.00 0.00 0.00 87 1014.7
20260905120333 24 88 0.0 0.0 0.00 0.00 0.00 87 1014.5
20260905115557 24 88 0.0 0.0 0.00 0.00 0.00 87 1014.4
20260905115537 24 88 0.0 0.0 0.00 0.00 0.00 86 1014.4
20260905114810 24 88 0.0 0.0 0.00 0.00 0.00 86 1014.3
20260905114259 24 88 0.0 0.0 0.00 0.00 0.00 86 1014.3
20260905113532 24 88 0.0 0.0 0.00 0.00 0.00 86 1014.2
20260905113031 24 49 0.0 0.0 0.00 0.00 0.00 86 1014.1
20260905112524 25 49 0.0 0.0 0.00 0.00 0.00 85 1014.1
20260905112024 25 49 0.0 0.0 0.00 0.00 0.00 85 1014.1
20260905111743 25 49 0.0 0.0 0.00 0.00 0.00 85 1014.1
20260905111248 25 49 0.0 0.0 0.00 0.00 0.00 84 1014.0
20260905110521 25 49 0.0 0.0 0.00 0.00 0.00 83 1014.0
20260905110242 25 49 0.0 0.0 0.00 0.00 0.00 83 1014.0